Retour au catalogue

CZ-4 DEB

ActifSSO
NORAD 23259·DEBRIS·🇨🇳 China

Lancé Sep 3, 1990 depuis Taiyuan Satellite Launch Center

Loading…

Prochains Passages (prochaines 24 heures)

TLE

FraisSource: Space-Track

Époque: Sep 12, 2026, 05:42 UTC

1 23259U 90081CQ  26255.23785207  .00001015  00000-0  37259-3 0  9999
2 23259  98.5604 253.1479 0018868  92.4844 267.8501 14.34782147822707

Suivez CZ-4 DEB en temps réel avec AllMySat

Download on the App Store